星链-31034 (STARLINK-31034 )

导读

STARLINK-31034是美国星链互联网星座的成员卫星,于2024年1月14日成功发射。星链计划旨在构建全球卫星互联网系统,为偏远地区、海上及空中提供高速网络服务,该卫星的入轨进一步扩充了星链星座的规模,提升星座全球覆盖密度与服务能力。

Basic Information
目录编号:
58785
目录名称:
STARLINK-31034
国际标识:
2024-011W
轨道中心:
EARTH
卫星名称:
星链-31034
卫星全名:
星链-31034 (STARLINK-31034 )
卫星状态:
在轨 (已飞行971 天)
发射日期:
2024-01-14 UTC
国别 :
美国 (US)
星等 :
--
This satellite is enrolled in the Space Conjunction Data Service (SCDS) and the current flight risk assessment level is: No High Risk
Orbit Information
数据来源 国际轨道数据 AOE轨道数据
星历时间 2026-09-11T10:04:09+0800
15小时前
查看轨道信息
2026-09-10T22:00:00+0800
1天前
查看轨道信息
半长轴 6840.862km 6840.874km
偏心率 0.0001162 0.000109
轨道倾角 53.160° 53.158°
近地点辐角 95.558° 95.081°
升交点赤经 126.063° 128.416°
平近点角 264.555° 5.628°
近地点 461.93km 461.991km
远地点 463.52km 463.483km
周期 93.848分钟 93.848分钟
每日圈数 15.343928 15.343888
Detailed Information
固有亮度:
5
最大亮度:
0.3
卫星平台:
Starlink v2.0 mini
覆盖范围:
全球
运营商:
太空探索技术公司
运营商所在国:
美国
制造商(研发单位):
太空探索技术公司
制造商所在国:
美国
使用方式:
暂无
Satellite Introduction
星链(Starlink)计划是由太空探索技术公司(SpaceX)提出的一个巨型低轨卫星互联网星座项目,计划在2019年至2024年间在太空搭建由约1.2万颗卫星组成的“星链”网络,其中1584颗将部署在地球上空550千米处的近地轨道,并从2020年开始工作。该卫星仍在工作。
2D Orbit Map
3D Orbit Map
Orbit Altitude Analysis Chart
Orbit Inclination Analysis Chart
Orbit Comprehensive Analysis Chart
View Comprehensive Chart
Miss Distance Evolution Trend with All Objects
Collision Probability Evolution Trend with All Objects